TimeCST,TemperatureF,Dew PointF,Humidity,Sea Level PressureIn,VisibilityMPH,Wind Direction,Wind SpeedMPH,Gust SpeedMPH,PrecipitationIn,Events,Conditions,WindDirDegrees,DateUTC
12:53 AM,46.0,32.0,58,30.09,10.0,NNW,6.9,-,N/A,,Clear,340,2013-03-01 06:53:00
2:53 AM,43.0,28.9,58,30.07,10.0,North,6.9,-,N/A,,Clear,350,2013-03-01 08:53:00
3:53 AM,39.9,30.0,68,30.06,10.0,North,4.6,-,N/A,,Clear,350,2013-03-01 09:53:00
4:53 AM,39.0,30.9,73,30.08,10.0,NNW,4.6,-,N/A,,Clear,340,2013-03-01 10:53:00
5:53 AM,39.0,32.0,76,30.09,10.0,NNW,3.5,-,N/A,,Clear,330,2013-03-01 11:53:00
6:53 AM,39.0,30.9,73,30.10,10.0,NNW,4.6,-,N/A,,Clear,330,2013-03-01 12:53:00
7:53 AM,42.1,30.0,62,30.13,10.0,NNW,4.6,-,N/A,,Clear,330,2013-03-01 13:53:00
8:53 AM,44.1,27.0,51,30.13,10.0,NNW,6.9,-,N/A,,Clear,340,2013-03-01 14:53:00
9:53 AM,48.0,27.0,44,30.12,10.0,North,8.1,-,N/A,,Clear,350,2013-03-01 15:53:00
10:53 AM,50.0,28.0,43,30.11,10.0,NW,8.1,-,N/A,,Clear,310,2013-03-01 16:53:00
11:53 AM,51.1,28.0,41,30.08,10.0,NNW,6.9,-,N/A,,Clear,330,2013-03-01 17:53:00
12:53 PM,52.0,28.9,41,30.05,10.0,NNW,3.5,-,N/A,,Mostly Cloudy,340,2013-03-01 18:53:00
1:53 PM,55.0,28.0,35,30.03,10.0,NNW,10.4,-,N/A,,Scattered Clouds,330,2013-03-01 19:53:00
2:53 PM,55.9,27.0,33,30.02,10.0,WNW,12.7,-,N/A,,Mostly Cloudy,300,2013-03-01 20:53:00
3:53 PM,55.0,27.0,34,30.01,10.0,WNW,10.4,-,N/A,,Scattered Clouds,300,2013-03-01 21:53:00
4:53 PM,55.0,28.0,35,30.02,10.0,NW,10.4,-,N/A,,Overcast,320,2013-03-01 22:53:00
5:53 PM,51.1,30.0,44,30.03,10.0,Calm,Calm,-,N/A,,Partly Cloudy,0,2013-03-01 23:53:00
6:53 PM,46.0,33.1,61,30.05,10.0,North,3.5,-,N/A,,Clear,350,2013-03-02 00:53:00
8:53 PM,41.0,33.1,73,30.10,10.0,Calm,Calm,-,N/A,,Partly Cloudy,0,2013-03-02 02:53:00
9:53 PM,43.0,32.0,65,30.12,10.0,NNW,6.9,-,N/A,,Mostly Cloudy,340,2013-03-02 03:53:00
10:53 PM,41.0,30.9,67,30.13,10.0,NNW,8.1,-,N/A,,Clear,330,2013-03-02 04:53:00
11:53 PM,39.0,28.0,65,30.14,10.0,NNW,5.8,-,N/A,,Clear,340,2013-03-02 05:53:00